Find the Weather for any City, State or Zip Code, or Country:


Mobile Weather


Questions? Comments?
Contact Greg


Winchester Trails
Subdivision Website


New! Stream Houston NOAA Weather Radio Here!


Current Maps

Tropical (Hurricane)

Temperature

Heat Index

Windchill

Humidity

Radar

Dew Point

Wind

Visibility

Visible Satellite

Satellite

Fronts

Jet Stream

Flight Rules


Forecast Maps

Temperature Forecast

Maximum Temperature Forecast

Minimum Temperature Forecast

Dewpoint Forecast

Prevalent Weather

12Hr Probability of Precip.

Sky Cover


Health Maps

Houston Pollen/Mold Report

UV Forecast

Air Quality

Peak Air Quality Index


Miscellaneous

NOAA Aviation Weather

NWS Houston/Galveston

National Weather Service (main page)

National Hurricane Center

Hurricane Archive

Harris Co. Flood Warning System

Harris Co. Storm Risk Calculator

U.S. Drought Monitor

TX Lake/Reservoir Data & Levels

Eric 'SciGuy' Berger Weather Blog

Dr. Jeff Masters Weather Blog

Houston Traffic

TxDOT Highway Conditions

Houston Electricity Outage Tracker

Galveston CruiseCam


This Station's Data

NOAA-Style Reports

Weather Detail

Daily Tabular Data


This Station's Position:
Lat. 29° 54' 14.18" N
Lon. 95° 34' 24.45" W
Elevation 112 ft (34.1 m)


Visit this station's partner in Cypress, 8sm west of here!


Weather Instruments:


Vantage Pro 2


Current Weather Conditions

This page refreshes automatically every 5 minutes and is best viewed at 1024x768 or higher resolution.
Powered by Ambient Weather Virtual Weather Station V14.01

Page last refreshed July 29, 2014 at 7:55 pm CDT (UTC -6)

Metric & Other Conversions for Current Observations
Current Temp28.5 °CHigh Temp34.2 °CLow Temp25 °C
Current Dew Point23.8 °CHeat Index32.7 °CWind Chill28.5 °C
Barometer1016.98 mbarBarometer762.8 mmHgBarometer14.75 psi
Density Altitude:  1588 ft (484 m)Pressure Altitude:  11 ft (3.4 m)
Barometer readings for a Standard Day (59.0 °F/15.0 °C @ sea level):  29.92" Hg, 1013.25 mbar, 757.83 mmHg, 14.70 psi


No Warnings, Watches, or Advisories for Harris and surrounding counties.


Local Radar Other Radar Graphics Local Satellite
Click for larger image WunderMap®

High Definition Radar (KHOU)

Regional Radar
Click for larger image
Radar & Satellite Graphics by Weather Underground




National Weather Service Forecast for: Jersey Village TX
Issued by: National Weather Service Houston, TX
Updated: 7:20 pm CDT Jul 29, 2014
 
Tonight

Slight Chc T-Storms. Chance for Measurable Precipitation 20%
Slight Chc
T-Storms
Wednesday

Slight Chc T-Storms. Chance for Measurable Precipitation 20%
Slight Chc
T-Storms
Wednesday
Night

Partly Cloudy
Partly
Cloudy
Thursday

Chance T-Storms. Chance for Measurable Precipitation 30%
Chance
T-Storms
Thursday
Night

Chance T-Storms. Chance for Measurable Precipitation 40%
Chance
T-Storms
Friday

Chance T-Storms. Chance for Measurable Precipitation 40%
Chance
T-Storms
Friday
Night

Chance T-Storms. Chance for Measurable Precipitation 40%
Chance
T-Storms
Saturday

Chance T-Storms. Chance for Measurable Precipitation 30%
Chance
T-Storms
Saturday
Night

Mostly Cloudy
Mostly
Cloudy
Lo 76 °F Hi 96 °F Lo 74 °F Hi 95 °F Lo 77 °F Hi 92 °F Lo 74 °F Hi 90 °F Lo 70 °F

Hazardous Weather Outlook
 

Tonight
 
A 20 percent chance of showers and thunderstorms before 1am. Mostly cloudy, with a low around 76. East wind around 5 mph becoming calm after midnight.
Wednesday
 
A 20 percent chance of showers and thunderstorms after 1pm. Partly sunny, with a high near 96. Heat index values as high as 103. Light south wind increasing to 5 to 10 mph in the morning.
Wednesday Night
 
Partly cloudy, with a low around 74. South wind 5 to 15 mph.
Thursday
 
A 30 percent chance of showers and thunderstorms after 1pm. Partly sunny, with a high near 95. Heat index values as high as 102. South wind 5 to 10 mph.
Thursday Night
 
A 40 percent chance of showers and thunderstorms. Mostly cloudy, with a low around 77. South wind 5 to 10 mph.
Friday
 
A 40 percent chance of showers and thunderstorms. Mostly cloudy, with a high near 92.
Friday Night
 
A 40 percent chance of showers and thunderstorms, mainly before 1am. Mostly cloudy, with a low around 74.
Saturday
 
A 30 percent chance of showers and thunderstorms. Partly sunny, with a high near 90.
Saturday Night
 
Mostly cloudy, with a low around 70.
Sunday
 
A 30 percent chance of showers and thunderstorms. Partly sunny, with a high near 92.
Sunday Night
 
A 20 percent chance of showers and thunderstorms. Mostly cloudy, with a low around 74.
Monday
 
A 30 percent chance of showers and thunderstorms. Partly sunny, with a high near 93.
Monday Night
 
A 20 percent chance of showers and thunderstorms. Partly cloudy, with a low around 74.
Tuesday
 
A 30 percent chance of showers and thunderstorms. Mostly sunny, with a high near 92.

 

Forecast from NOAA-NWS for Jersey Village TX.

Follow this link for a current verbose area forecast discussion from the NWS.
Forecast Script by Saratoga Weather | Animated icons by Meteo Treviglio


Radar and Satellite Imagery


US Current Fronts w/Radar

Southcentral Infrared Satellite

US Jet Stream

Visible Satellite
The WunderMap is interactive - pan and zoom with your mouse.
WunderMap here requires Flash.
If accessing from an iOS device, you can download the Wundermap App from the App Store.
  
Click to go to WUnderground
Sea Surface Temp & Tropical System Map
Map Graphics by Weather Underground


Rainfall Information
Yesterday's Rain: 0 in
Last Rainfall:
Surrounding Area Rainfall Data
NOAA Avg. Rainfall For: Month to Date
(1971-2000)
Month to Date
(1981-2010)
Year to Date
(1971-2000)
Year to Date
(1981-2010)
Jersey Village: 3.66 in
(0.77 in)
4.38 in
(0.05 in)
28.05 in
(-4.46 in)
29.73 in
(-6.14 in)
Intercontinental (KIAH) 2.98 in 3.61 in 27.1 in 27.93 in
Hobby (KHOU) 4.12 in 4.42 in 29.98 in 29.8 in
NOTE:  The numbers in parenthesis under the Jersey Village data above indicate how far ahead (green) or behind (red) this station's rain total is compared to the NOAA 1971-2000 and 1981-2010 climate normals data for today's date (Jul 29).


Other Current Regional Observations (METARs)

(Ordered by straight-line statute mile distance from this weather station)

A Few More Observations/METARs of Interest to Greg


Weather Almanac

NOAA/NWS Daily Historical Weather Browser
Major SE Texas Weather Events

Records and Normals for Jul 29
Temperature Forecast Normal Record
High 95° 93° 100°
(1998)
Low 75°
72°
73°
(1998)
Highs & Lows Observed at This Station
  Today Yesterday For 7/2014 For 2014
High Temp 93.5°F at 1:27pm 99.5°F at 5:32pm 100.5°F on 7/21/14 100.5°F on 7/21/14
Low Temp 77.0°F at 4:22pm 77.3°F at 6:26am 71.3°F on 7/5/14 22.6°F on 1/7/14
High Dew Point 78.2°F at 2:23pm 77.4°F at 11:05am 80.1°F on 7/21/14 80.1°F on 7/21/14
Low Dew Point 72.9°F at 3:58pm 65.6°F at 8:15pm 65.6°F on 7/28/14 8.4°F on 1/6/14
High Humidity 89% at 5:05pm 91% at 5:56am 95% on 7/6/14 98% on 2/5/14
Low Humidity 53% at 1:20pm 38% at 5:42pm 38% on 7/28/14 21% on 4/28/14
High Heat Index 105.6°F at 1:45pm 110.7°F at 3:04pm 117.7°F on 7/21/14 117.7°F on 7/21/14
High Barometer 29.98in at 10:59am 30.02in at 10:29am 30.08in on 7/4/14 30.60in on 1/6/14
Low Barometer 29.91in at 5:29pm 29.88in at 6:29pm 29.71in on 7/17/14 29.41in on 4/27/14
High Wind Speed 11mph at 1:59pm 14mph at 10:06am 24mph on 7/3/14 25mph on 3/16/14
High Wind Gust 11mph at 1:59pm 14mph at 10:06am 24mph on 7/3/14 25mph on 3/12/14
Low Wind Chill 77.0°F at 4:22pm 77.3°F at 6:26am 71.3°F on 7/5/14 11.5°F on 3/3/14

Sun & Moon
Sunrise:  6:41am Sunset:  8:19pm Moon Phase:
5%
Moonrise:  9:02am Moonset:  9:47pm
Star Chart...

 

Local Trend Graphs


MesoNet Local Weather Exchange® Network

Station ID

City 
(Click for Map Location)

Neighborhood 
(Click for History)
Last Update
(Date & Time)

Temp
 (°)

Dew
Point (°)
Humidity 
(%)
Wind 
(mph)
From
the
Gust
(mph) 
Pressure (in) Hourly
Rain (in)
KTXHOUST61 Houston Willow Point 07/29 19:44:59 84.7 34.0 16 0 East 0 29.91 0.00
KTXHOUST186 Houston Winchester Trails 07/29 19:45:05 83.7 75.0 76 0 East 1 30.03 0.00
KTXHOUST178 Houston Schroeder Oaks Village 07/29 19:45:06 85.6 77.0 76 0 ESE 1 29.98 0.00
KTXHOUST291 Houston Steeplechase 07/29 19:45:05 83.7 78.0 84 0 East 1 29.90 0.00
KTXHOUST216 Houston Cutten Green 07/29 19:44:30 84.2 78.0 81 0 ESE 3 29.99 0.00
KTXHOUST232 Houston Rolling Fork 07/29 19:40:14 83.5 77.0 80 0 SE 0 30.00 0.00
KTXHOUST349 Houston Champions Crossing 07/29 19:38:54 84.6 78.0 80 3 East 0 29.84 0.00
KTXHOUST218 Houston Woodland Trails West 07/29 19:44:35 82.8 77.0 83 0 East 4 30.00 0.00
KTXHOUST121 Houston Norchester, K5WH 07/29 19:27:11 86.5 77.0 74 1 ENE 3 29.97 0.00
MUR202 Houston MesoWest MELNDY TX US UPR 07/29 17:20:00 86.0 0.0 0 0

North 0 0.00 0.00
KTXHOUST170 Houston Champions Park 07/29 19:40:23 85.0 77.0 78 0 ESE 0 30.00 0.00
KTXTEXAS12 Texas FM 1960 07/29 19:42:04 85.3 78.0 79 2 East 0 29.98 0.00
KTXHOUST342 Houston Lakewood Forest at Cypresswood 07/29 19:44:53 84.6 76.0 76 0 East 0 29.83 0.00
KTXHOUST233 Houston Woods of Wimbledon 07/29 19:45:06 84.4 77.0 79 0 ESE 0 30.02 0.00
KTXHOUST352 Houston Vila Toscana 07/29 19:45:07 83.5 76.0 77 0 ENE 2 29.97 0.00
KTXHOUST169 Houston Lakewood Forest 07/29 19:45:06 84.6 78.0 80 0 NE 0 30.02 0.00
KTXHOUST261 Cypress Heatherwood Village 07/29 19:37:59 85.6 76.0 74 0 North 0 29.45 0.00
KTXSPRIN88 Spring Champions Woods 07/29 19:36:39 84.6 78.0 81 0 SE 0 29.70 0.00
KTXCYPRE11 Cypress Weiser Airpark 07/29 19:44:59 86.0 74.0 68 0 SE 0 30.04 0.00
KTXCYPRE42 Cypress Great Oaks 07/29 19:40:28 84.3 77.0 79 0 ESE 0 30.00 0.00
KTXHOUST271 Houston Middlegate Village 07/29 19:44:58 82.8 76.0 79 0 West 0 29.83 0.00
KTXSPRIN36 Spring Klein Fire Department 07/29 19:45:06 83.0 68.0 61 3 SE 4 29.41 0.00
KTXSPRIN9 Spring Wimbledon 07/29 19:45:02 83.0 76.0 80 0 NNW 0 29.92 0.00
KTXTOMBA9 Tomball Spring Cypress/Eldridge 07/29 19:44:45 85.3 76.0 75 0 NNE 2 30.02 0.00
KTXHOUST29 Houston Concord Colony - K5EBQ 07/29 19:41:08 83.0 77.0 83 0 NNW 0 30.02 0.00
KTXSPRIN83 Spring Memorial NorthWest 07/29 19:45:01 83.3 78.0 84 0 West 0 29.64 0.00
KTXHOUST265 Houston Spring Shadows 07/29 19:39:19 81.5 77.0 86 0 SSE 1 30.02 0.00
KTXHOUST329 Houston Spring Shadows Blk 1 07/29 19:44:55 81.9 77.0 86 1 East 1 30.03 0.00
KDWH Houston Hooks Official Station 07/29 18:53:00 85.0 76.0 74 4 East --- 30.03 ---
KIAH Houston Intercontinental Official Station 07/29 18:53:00 84.0 75.0 74 4 SE --- 30.03 ---
KMCJ Houston / Dunn Helistop Official Station 07/29 19:35:00 81.0 73.0 79 0 North --- 30.01 ---
KSGR Houston Hull Official Station 07/29 18:53:00 86.0 73.0 65 7 SSE --- 30.04 ---
KTXCYPRE54 Cypress Canyon Lakes West 07/29 19:45:07 85.4 75.0 72 2 East 6 30.10 0.00
KTXHOUST197 Cypress Canyon Lakes West 07/29 19:45:06 84.7 77.0 78 1 South 4 29.95 0.00
KTXCYPRE65 Cypress Heritage Towne Lake 07/29 19:45:10 85.0 76.0 75 4 East 4 29.99 0.00
KTXCYPRE21 Cypress Bridgeland Community 07/29 19:45:10 84.4 76.0 77 0 ENE 3 29.99 0.00
KTXCYPRE58 Cypress Lakeland Village 07/29 19:45:02 84.6 76.0 77 0 ESE 1 29.96 0.00
KTXCYPRE73 Cypress Moonlit Haven - Bridgeland 07/29 19:44:57 84.6 76.0 74 3 ESE 4 28.85 0.00
KTXCYPRE12 Cypress Blackhorse Ranch South 07/29 19:45:05 83.3 77.0 82 0 NNW 0 29.97 0.00
KTXCYPRE17 Cypress Blackhorse Ranch 81.7 81.7 77.0 85 0 East 3 29.97 0.00